Location: Unspecified
(0.0000°N, 0.0000°E)
Time: 02:56:27
(UTC+00:00)

Vanguard 3 - Visible Passes

Search period start: 01 March 2015 00:00
Search period end: 11 March 2015 00:00
Orbit: 510 x 3273 km, 33.3° (Epoch: 27 February)

Date Brightness Start Highest point End Pass type
(mag) Time Alt. Az. Time Alt. Az. Time Alt. Az.
01 Mar 10.8 01:28:06 21° SE 01:28:06 21° SE 01:34:07 10° ESE visible
01 Mar 9.5 03:32:58 25° SSW 03:41:44 51° SSE 03:50:31 10° ENE visible
01 Mar 8.5 05:44:39 10° WSW 05:55:35 49° NW 06:01:43 10° NNE visible
01 Mar 10.7 19:11:09 10° W 19:21:59 33° SSW 19:37:20 10° SE visible
01 Mar 11.3 21:31:40 10° SW 21:43:05 19° S 21:55:16 10° SSE visible
01 Mar 11.3 23:53:38 10° SSW 00:21:31 - ESE 00:00:11 17° SSW visible
02 Mar 10.2 02:26:23 37° SSE 02:26:45 37° SSE 02:37:15 10° E visible
02 Mar 8.6 04:31:14 17° SW 04:42:45 87° NW 04:50:29 10° NE visible
02 Mar 11.1 20:14:52 10° WSW 20:25:46 22° SSW 20:38:51 10° SSE visible
02 Mar 11.3 22:37:01 10° SSW 22:48:32 18° S 22:50:51 18° SSE visible
03 Mar 10.9 01:19:33 18° ESE 01:19:33 18° ESE 01:22:38 10° ESE visible
03 Mar 9.3 03:24:23 46° SSW 03:28:54 62° SSE 03:38:23 10° ENE visible
03 Mar 8.8 05:31:22 10° WSW 05:42:38 40° NW 05:49:07 10° NNE visible
03 Mar 10.8 18:59:32 10° WSW 19:09:22 27° SSW 19:22:55 10° SSE visible
03 Mar 11.3 21:20:09 10° SW 21:30:38 18° S 21:41:31 11° SSE visible
03 Mar 11.3 23:39:59 10° SSW 23:46:08 18° SSW 23:46:08 18° SSW visible
04 Mar 10.1 02:17:21 40° ESE 02:17:21 40° ESE 02:25:17 10° E visible
04 Mar 8.7 04:22:10 32° WSW 04:29:43 74° NW 04:38:02 10° NE visible
04 Mar 11.2 20:03:40 10° SW 20:13:17 19° S 20:24:47 10° SSE visible
04 Mar 11.2 22:24:18 10° SSW 22:36:02 19° S 22:36:50 19° S visible
05 Mar 11.1 00:41:22 10° SSW 01:10:07 12° E 01:10:52 10° E visible
05 Mar 9.2 03:14:54 72° S 03:15:51 75° SSE 03:26:03 10° ENE visible
05 Mar 9.2 05:19:42 13° W 05:29:38 34° NW 05:36:25 10° NNE visible
05 Mar 10.9 18:48:12 10° WSW 18:56:52 22° SSW 19:08:26 10° SSE visible
05 Mar 11.3 21:08:28 10° SSW 21:18:14 17° S 21:27:34 12° SSE visible
05 Mar 11.3 23:26:16 10° SSW 23:32:11 19° SSW 23:32:11 19° SSW visible
06 Mar 10.2 02:07:29 34° E 02:07:29 34° E 02:13:07 10° ENE visible
06 Mar 8.9 04:12:15 46° W 04:16:33 62° NW 04:25:27 10° NE visible
06 Mar 11.2 19:52:35 10° SW 20:00:54 16° S 20:10:48 10° SSE visible
06 Mar 11.2 22:11:21 10° SSW 22:22:55 20° S 22:22:55 20° S visible
07 Mar 11.3 00:27:12 10° SW 00:59:53 - E 00:27:32 11° SW visible
07 Mar 9.2 03:04:39 71° ENE 03:04:39 71° ENE 03:13:34 10° NE visible
07 Mar 9.5 05:09:24 19° W 05:16:35 29° NW 05:23:36 10° NNE visible
07 Mar 11.0 18:37:10 10° SW 18:44:30 18° S 18:53:51 10° SSE visible
07 Mar 11.2 20:56:31 10° SSW 21:05:48 16° S 21:13:42 13° SSE visible
07 Mar 11.2 23:12:28 10° SSW 23:18:19 20° SSW 23:18:19 20° SSW visible
08 Mar 10.5 01:56:54 26° ENE 01:56:54 26° ENE 02:00:43 10° ENE visible
08 Mar 9.2 04:01:39 52° WNW 04:03:16 53° NW 04:12:44 10° NE visible
08 Mar 11.2 19:41:35 10° SSW 19:48:34 14° S 19:56:55 10° SSE visible
08 Mar 11.1 21:58:11 10° SSW 22:09:07 21° S 22:09:07 21° S visible
09 Mar 11.4 00:13:07 10° SW 00:49:01 - ENE 00:13:44 11° SW visible
09 Mar 9.6 02:53:45 52° NE 02:53:45 52° NE 03:00:55 10° NE visible
09 Mar 9.7 04:58:29 21° WNW 05:03:33 26° NW 05:10:41 10° NNE visible
09 Mar 11.0 18:26:32 10° SW 18:32:14 14° S 18:39:04 10° SSE visible
09 Mar 11.2 20:44:16 10° SSW 20:53:19 16° SSE 20:59:57 14° SSE visible
09 Mar 11.2 22:58:41 10° SSW 23:04:34 21° SSW 23:04:34 21° SSW visible
10 Mar 10.7 01:45:43 20° ENE 01:45:43 20° ENE 01:48:08 10° ENE visible
10 Mar 9.4 03:50:27 46° NNW 03:50:27 46° NNW 03:59:54 10° NNE visible
10 Mar 11.2 19:30:34 10° SSW 19:36:17 13° S 19:43:13 10° SSE visible
10 Mar 11.0 21:44:53 10° SSW 21:55:26 23° S 21:55:26 23° S visible
